[[{"header":{"parameterUnit":"m.s-1","parameterCategory":1,"la1":30.2991,"la2":30.254,"lo1":-89.0895,"lo2":-89.0444,"dy":0.0017,"dx":0.0017,"nx":28,"ny":28,"refTime":"2024-06-30T03:00:00:Z","depth":0,"parameterNumber":2,"parameterNumberName":"U-component_of_WINDS"},"data":[0,0,0,0,0,0,0,0,0,0,0,0,0,0,0,0,0,0,0,0,0,0,0,0,0,0,0,0,0,0,0,0,0,0,0,0,0,0,0,0,0,0,0,0,0,0,0,0,0,0,0,0,0,0,0,0,0,0,1.2832,1.2835,0,1.3053,1.3056,1.3058,1.3158,1.3157,1.3157,1.3157,1.338,1.3386,1.3392,0,0,0,0,0,0,0,0,0,0,0,0,0,1.2492,1.2498,1.2832,1.2835,1.2838,1.3053,1.3056,1.3059,1.3158,1.3157,1.3157,1.3157,1.3378,1.3385,1.3393,0,0,0,0,0,0,0,0,0,0,0,0,0,1.2669,1.25,1.2832,1.2913,1.2922,1.3052,1.3056,1.306,1.3158,1.3157,1.3157,1.3157,1.3376,1.3385,1.3394,1.3458,0,0,1.3422,1.3426,0,0,0,0,0,0,0,0,1.2659,1.2681,1.2898,1.2908,1.2918,1.3078,1.3018,1.3193,1.3158,1.3068,1.3157,1.3156,1.3279,1.3297,1.3339,1.3469,1.3478,1.3423,1.3428,1.3432,1.3435,0,0,0,0,0,0,0,1.2646,1.2672,1.2919,1.2901,1.2914,1.2937,1.2962,1.3051,1.3173,1.3076,1.3084,1.3109,1.3285,1.333,1.3345,1.3481,1.3423,1.3431,1.3436,1.344,1.3674,1.3675,0,0,0,0,0,0,1.2621,1.2661,1.2912,1.2926,1.2785,1.2943,1.2971,1.3027,1.3172,1.3194,1.3109,1.3113,1.3314,1.3334,1.3353,1.3438,1.3432,1.3441,1.3446,1.3674,1.3674,1.3675,0,0,0,0,0,0,1.2613,1.2643,1.2904,1.2796,1.2831,1.295,1.3011,1.3031,1.3076,1.3197,1.3219,1.3132,1.3314,1.334,1.3431,1.3447,1.3445,1.3454,1.3673,1.3674,1.3675,1.3608,0,0,0,0,0,0,1.2603,1.2639,1.2666,1.2796,1.2836,1.2979,1.3012,1.3036,1.3092,1.3099,1.3225,1.3246,1.3316,1.3417,1.344,1.346,1.3461,1.3672,1.3673,1.3674,1.3609,1.3607,1.3604,0,0,0,0,0,1.2591,1.2638,1.2667,1.2697,1.2872,1.298,1.3003,1.3084,1.3093,1.312,1.3198,1.3242,1.3441,1.3425,1.3453,1.3475,1.3671,1.3673,1.3674,1.3611,1.3607,1.3604,0,0,0,0,0,0,1.2506,1.2656,1.269,1.2781,1.2867,1.2996,1.3034,1.3078,1.3162,1.3165,1.3261,1.3289,1.3371,1.3432,1.3412,1.3545,1.356,1.3567,1.3502,1.35,1.3497,1.3481,1.3469,0,0,0,0,0,1.2498,1.2574,1.2701,1.2768,1.281,1.2914,1.2964,1.3019,1.3111,1.3148,1.3232,1.3319,1.3402,1.3454,1.3537,1.3618,1.3647,1.3647,1.3644,1.3642,1.3647,1.3694,1.3695,1.368,1.368,1.368,0,0,1.2482,1.2573,1.2615,1.2754,1.2827,1.2902,1.2944,1.3022,1.3078,1.3159,1.3251,1.3316,1.3419,1.3506,1.3548,1.3559,1.3657,1.3643,1.364,1.3647,1.3696,1.3697,1.3698,1.3681,1.3681,1.3681,0,0,1.2492,1.2568,1.2633,1.2706,1.2816,1.2885,1.29,1.3023,1.3069,1.3163,1.3225,1.3293,1.3433,1.3504,1.3558,1.3593,1.3636,1.3617,1.3604,1.3649,1.365,1.3652,1.3664,1.3668,1.3622,1.3621,1.3621,0,1.2458,1.2575,1.2661,1.2736,1.2794,1.2871,1.2937,1.3002,1.3133,1.3171,1.3182,1.3359,1.3434,1.3538,1.3546,1.3588,1.3608,1.3604,1.3643,1.3646,1.3648,1.3661,1.3666,1.3618,1.3619,1.3619,1.3619,0,1.2527,1.2607,1.2646,1.2772,1.2835,1.2904,1.2999,1.3052,1.3101,1.3168,1.3261,1.3354,1.3456,1.3485,1.3533,1.3596,1.3599,1.3625,1.3643,1.3645,1.3659,1.3665,1.3614,1.3615,1.3616,1.3617,0,0,1.2491,1.2663,1.2676,1.2733,1.286,1.2923,1.2995,1.3096,1.3139,1.3226,1.3289,1.3405,1.343,1.3491,1.3548,1.3587,1.3609,1.3609,1.3613,1.3606,1.3683,1.3663,1.3668,1.3638,1.3639,1.364,1.3674,0,1.2519,1.2654,1.2732,1.2834,1.2908,1.2982,1.3045,1.3128,1.3192,1.3264,1.3334,1.3415,1.3441,1.3479,1.3521,1.3597,1.3625,1.3595,1.3696,1.3699,1.3669,1.3675,1.3655,1.3683,1.368,1.3681,1.3682,0,1.2569,1.2656,1.2765,1.2883,1.2917,1.2972,1.3071,1.3138,1.3234,1.3278,1.3346,1.3402,1.348,1.349,1.3599,1.3577,1.3622,1.3665,1.3668,1.3682,1.3691,1.3689,1.3694,1.3698,1.3691,1.3691,1.369,0,1.2532,1.2675,1.276,1.2806,1.2946,1.2983,1.3042,1.3138,1.3193,1.3278,1.3315,1.3408,1.3459,1.3529,1.3608,1.3608,1.3708,1.3725,1.3747,1.3744,1.3765,1.3763,1.3778,1.3793,1.3793,1.3793,1.3793,0,1.2555,1.2619,1.2745,1.2797,1.287,1.2959,1.3028,1.3094,1.3178,1.3242,1.3311,1.337,1.3471,1.3542,1.3605,1.3685,1.3707,1.3744,1.376,1.3739,1.3734,1.377,1.3771,1.3794,1.3794,1.3793,1.3793,0,1.2526,1.2613,1.271,1.2834,1.2866,1.2915,1.302,1.3072,1.3139,1.322,1.3244,1.3349,1.3437,1.3523,1.364,1.3682,1.3761,1.3782,1.3729,1.3738,1.3754,1.3752,1.3794,1.3805,1.3811,1.381,1.381,0,1.2536,1.2587,1.2716,1.2765,1.2823,1.29,1.2957,1.3046,1.3102,1.3214,1.3253,1.3345,1.3424,1.3559,1.3646,1.3735,1.3759,1.3768,1.3773,1.375,1.376,1.3756,1.3762,1.3766,1.3765,1.3765,1.3764,0,1.2543,1.2583,1.2663,1.2758,1.2824,1.2903,1.2984,1.3019,1.3123,1.3182,1.3273,1.3334,1.3454,1.3544,1.3644,1.3704,1.3751,1.3762,1.3772,1.3751,1.3718,1.3736,1.3722,1.3761,1.3761,1.3761,1.3762,1.3762,1.2534,1.2583,1.2682,1.2768,1.2838,1.2912,1.2967,1.3041,1.3118,1.3223,1.327,1.3361,1.3454,1.3593,1.3652,1.3724,1.3736,1.375,1.3754,1.3756,1.3751,1.3705,1.3742,1.3742,1.3743,1.3743,1.3743,0,1.2545,1.2612,1.2691,1.2802,1.287,1.2909,1.3,1.3054,1.3133,1.3217,1.3293,1.3396,1.3484,1.3576,1.367,1.3709,1.3733,1.3731,1.3729,1.3742,1.3735,1.3718,1.371,1.371,1.371,1.371,1.371,1.371,1.2559,1.2644,1.2695,1.2815,1.2881,1.2971,1.302,1.3088,1.3155,1.3268,1.3341,1.3401,1.3488,1.3588,1.367,1.3695,1.3726,1.3717,1.3748,1.374,1.3743,1.3745,1.3729,1.3723,1.3723,1.375,1.375,1.375]},{"header":{"parameterUnit":"m.s-1","parameterCategory":1,"la1":30.2991,"la2":30.254,"lo1":-89.0895,"lo2":-89.0444,"dy":0.0017,"dx":0.0017,"nx":28,"ny":28,"refTime":"2024-06-30T03:00:00:Z","depth":0,"parameterNumber":3,"parameterNumberName":"V-component_of_WINDS"},"data":[0,0,0,0,0,0,0,0,0,0,0,0,0,0,0,0,0,0,0,0,0,0,0,0,0,0,0,0,0,0,0,0,0,0,0,0,0,0,0,0,0,0,0,0,0,0,0,0,0,0,0,0,0,0,0,0,0,0,3.7505,3.7505,0,3.7507,3.7507,3.7507,3.7454,3.7452,3.7451,3.7449,3.7449,3.745,3.7451,0,0,0,0,0,0,0,0,0,0,0,0,0,3.7456,3.7457,3.7505,3.7505,3.7505,3.7507,3.7507,3.7507,3.7454,3.7452,3.745,3.7449,3.7448,3.745,3.7451,0,0,0,0,0,0,0,0,0,0,0,0,0,3.7469,3.7458,3.7505,3.7479,3.7477,3.7507,3.7507,3.7507,3.7454,3.7452,3.745,3.7448,3.7448,3.745,3.7452,3.7506,0,0,3.7458,3.7458,0,0,0,0,0,0,0,0,3.7469,3.7471,3.7483,3.7481,3.7479,3.7478,3.7489,3.7506,3.7455,3.7463,3.7449,3.7447,3.746,3.7461,3.7466,3.7506,3.7506,3.7458,3.7459,3.746,3.746,0,0,0,0,0,0,0,3.7468,3.7471,3.7506,3.7483,3.7481,3.7467,3.7467,3.7492,3.7473,3.7462,3.7458,3.7459,3.7458,3.7464,3.7465,3.7506,3.7458,3.7459,3.7461,3.7461,3.7589,3.7591,0,0,0,0,0,0,3.7471,3.747,3.7506,3.7506,3.7468,3.747,3.7469,3.748,3.7473,3.747,3.7461,3.7457,3.7462,3.7463,3.7465,3.7527,3.746,3.7462,3.7463,3.7587,3.759,3.7592,0,0,0,0,0,0,3.747,3.7474,3.7506,3.7487,3.749,3.7473,3.7486,3.7481,3.7487,3.7472,3.7468,3.747,3.746,3.7462,3.7496,3.7526,3.7462,3.7464,3.7584,3.7588,3.7591,3.7651,0,0,0,0,0,0,3.7469,3.7474,3.7495,3.7488,3.7491,3.7537,3.7487,3.7483,3.749,3.7485,3.7479,3.7477,3.7458,3.7493,3.7498,3.7527,3.7466,3.7582,3.7586,3.759,3.7646,3.7656,3.7665,0,0,0,0,0,3.7467,3.7512,3.7496,3.7501,3.7517,3.7539,3.7541,3.752,3.7493,3.7513,3.7504,3.7477,3.7523,3.7497,3.7502,3.7532,3.7579,3.7585,3.759,3.7642,3.7654,3.7664,0,0,0,0,0,0,3.7522,3.751,3.7493,3.7537,3.754,3.753,3.7555,3.7533,3.7543,3.7537,3.751,3.7509,3.7547,3.7543,3.7515,3.7584,3.7546,3.7552,3.7585,3.7596,3.7605,3.7604,3.7467,0,0,0,0,0,3.7539,3.7559,3.7547,3.7587,3.7589,3.7572,3.7581,3.7565,3.7566,3.7567,3.7559,3.7561,3.7576,3.7586,3.7599,3.7646,3.7644,3.767,3.7679,3.7687,3.7692,3.7716,3.7727,3.7609,3.7609,3.7608,0,0,3.7575,3.7571,3.7585,3.7598,3.7598,3.7618,3.7573,3.7597,3.7611,3.757,3.7601,3.7596,3.7596,3.7637,3.7655,3.7635,3.7724,3.7693,3.7699,3.77,3.7722,3.7733,3.7743,3.7612,3.7611,3.7611,0,0,3.7649,3.7649,3.7682,3.7683,3.7684,3.7672,3.7681,3.7675,3.767,3.7701,3.767,3.7687,3.7713,3.7714,3.7719,3.7795,3.777,3.78,3.7847,3.7871,3.788,3.7888,3.7914,3.7924,3.7806,3.7806,3.7806,0,3.7693,3.7723,3.7701,3.7727,3.7733,3.7698,3.773,3.7732,3.7737,3.7742,3.7721,3.7753,3.775,3.779,3.7809,3.7814,3.7822,3.7799,3.788,3.7888,3.7895,3.792,3.793,3.7809,3.7809,3.7808,3.7808,0,3.7776,3.7797,3.7823,3.783,3.7839,3.7868,3.785,3.7863,3.7846,3.7836,3.7868,3.7865,3.7876,3.7884,3.7868,3.7922,3.791,3.7885,3.7846,3.7911,3.7933,3.7942,3.7814,3.7813,3.7812,3.7811,0,0,3.7883,3.7878,3.7888,3.789,3.7889,3.7905,3.7932,3.7944,3.7954,3.7959,3.7981,3.8004,3.7981,3.7986,3.7969,3.7991,3.805,3.7963,3.7962,3.7978,3.8108,3.8126,3.8137,3.8034,3.8036,3.8038,3.8108,0,3.7954,3.8001,3.7982,3.803,3.8049,3.8016,3.804,3.8042,3.8034,3.8049,3.804,3.8056,3.8026,3.8028,3.8048,3.8039,3.8076,3.8034,3.8053,3.8054,3.8052,3.8149,3.8168,3.8234,3.8117,3.8118,3.8119,0,3.8043,3.8052,3.8102,3.8098,3.8105,3.8127,3.8136,3.8151,3.8152,3.8145,3.8151,3.813,3.8156,3.8119,3.8153,3.8125,3.8132,3.8129,3.8131,3.8131,3.8089,3.815,3.8255,3.8264,3.8133,3.8132,3.8131,0,3.8114,3.814,3.8172,3.8176,3.8172,3.8188,3.8187,3.8186,3.8194,3.8202,3.8207,3.8218,3.8224,3.8233,3.8215,3.819,3.8252,3.8214,3.8246,3.8246,3.8259,3.8258,3.8365,3.8266,3.8266,3.8266,3.8266,0,3.8195,3.8226,3.8204,3.8224,3.8258,3.8237,3.8271,3.8267,3.8267,3.8285,3.8258,3.8276,3.8252,3.8268,3.8254,3.8284,3.8288,3.8282,3.8278,3.8283,3.8284,3.8286,3.8281,3.8269,3.8268,3.8268,3.8267,0,3.8279,3.8266,3.8299,3.8294,3.8293,3.8318,3.8313,3.8331,3.8322,3.8346,3.835,3.8336,3.8352,3.8336,3.8352,3.8343,3.8383,3.8373,3.8383,3.8379,3.8412,3.8408,3.8523,3.8536,3.8431,3.8432,3.8432,0,3.833,3.8353,3.8351,3.8361,3.8362,3.838,3.8388,3.8369,3.8379,3.8383,3.84,3.8415,3.8425,3.8453,3.8443,3.8455,3.8444,3.8483,3.8445,3.845,3.8443,3.8441,3.8443,3.849,3.8492,3.8493,3.8493,0,3.8422,3.8414,3.8428,3.844,3.8451,3.8459,3.8465,3.8475,3.8455,3.8467,3.8484,3.8493,3.8509,3.8523,3.8532,3.8531,3.8509,3.8506,3.8514,3.8519,3.8523,3.852,3.8402,3.8503,3.8502,3.8501,3.8501,3.85,3.849,3.8509,3.851,3.8526,3.8529,3.8536,3.8552,3.8546,3.856,3.8572,3.856,3.858,3.8581,3.8591,3.8593,3.8608,3.8591,3.8603,3.8605,3.8608,3.8613,3.8522,3.861,3.8609,3.8609,3.8609,3.8609,0,3.8579,3.8579,3.8594,3.8603,3.8616,3.8596,3.8602,3.8613,3.8632,3.8635,3.8646,3.8666,3.868,3.8672,3.8684,3.8698,3.8688,3.8702,3.87,3.87,3.8627,3.8619,3.8709,3.8709,3.8709,3.8709,3.8709,3.8709,3.8627,3.8658,3.8651,3.8683,3.8683,3.8703,3.8708,3.8713,3.8716,3.8739,3.8751,3.8747,3.8745,3.8757,3.8769,3.8766,3.8772,3.8789,3.8782,3.8715,3.8705,3.8695,3.8687,3.879,3.879,3.8853,3.8853,3.8854]}]]